Flag for Benin Weather past 2 weeks in Porto Novo, Benin

Now
81 °F

Broken clouds.


Feels Like: 87 °F
Forecast: 75 / 83 °F
Wind: 14 mph from Southwest

Location: Cotonou Airport

Current Time: Sep 1, 2014 at 2:43:08 PM

Latest Report: Sep 1, 2014 at 2:00 PM


Visibility: N/A

Pressure: 29.89 "Hg

Humidity: 89%

Dew point: 77 °F

Location of Porto NovoLocation

Historic Weather in Porto Novo — Graph

°F

Porto Novo temperature yesterday

Maximum temperature yesterday: 82 °F (at 11:00 AM)
Minimum temperature yesterday: 75 °F (at 2:00 AM)
Average temperature yesterday: 78 °F

Past Weeks' High & Low Weather Summary

 TemperatureHumidityPressure
High84 °F (Aug 25, 3:00 PM)100% (Aug 17, 7:00 PM)30.01 "Hg (Aug 17, 7:00 PM)
Low70 °F (Aug 26, 5:00 AM)79% (Aug 18, 3:00 PM)29.80 "Hg (Aug 28, 5:00 PM)
Average77 °F96%29.90 "Hg
* Reported Aug 17 1:00 PM — Sep 1 1:00 PM, Porto Novo, Weather by CustomWeather, © 2014

Note: Actual official high and low records may vary slightly from our data, if they occured in-between our weather recording intervals... More about our weather records

Advertising

Porto Novo weather history for previous 24 hours

 ConditionsComfort  
Time TempWeatherWind HumidityBarometerVisibility
1:00 PM
Sep 1
79 °FBroken clouds.14 mph94%29.92 "HgN/A
12:00 PM79 °FBroken clouds.13 mph94%29.95 "HgN/A
11:00 AM81 °FBroken clouds.14 mph94%29.98 "Hg5 mi
10:00 AM81 °FPartly sunny.13 mph94%29.95 "Hg5 mi
9:00 AM77 °FPartly sunny.12 mph100%29.95 "Hg5 mi
8:00 AM77 °FPartly sunny.12 mph100%29.92 "Hg5 mi
7:00 AM75 °FDrizzle. Partly sunny.10 mph100%29.92 "Hg5 mi
6:00 AM75 °FPartly cloudy.12 mph100%29.89 "Hg5 mi
5:00 AM75 °FPassing clouds.12 mph100%29.89 "Hg5 mi
4:00 AM77 °FPassing clouds.13 mph100%29.89 "Hg5 mi
3:00 AM75 °FPassing clouds.14 mph100%29.86 "Hg5 mi
2:00 AM77 °FPassing clouds.15 mph100%29.89 "Hg5 mi
1:00 AM75 °FPassing clouds.13 mph100%29.89 "HgN/A
12:00 AM75 °FPassing clouds.12 mph100%29.92 "HgN/A
11:00 PM
Aug 31
75 °FPassing clouds.10 mph100%29.92 "HgN/A
10:00 PM75 °FPassing clouds.10 mph100%29.92 "HgN/A
9:00 PM77 °FPassing clouds.13 mph100%29.89 "HgN/A
8:00 PM77 °FPartly cloudy.14 mph100%29.86 "HgN/A
7:00 PM77 °FPartly cloudy.14 mph100%29.86 "HgN/A
6:00 PM77 °FBroken clouds.15 mph100%29.86 "HgN/A
5:00 PM79 °FBroken clouds.17 mph94%29.83 "HgN/A
4:00 PM79 °FBroken clouds.14 mph100%29.83 "HgN/A
3:00 PM81 °FBroken clouds.16 mph94%29.86 "HgN/A
2:00 PM81 °FBroken clouds.15 mph94%29.89 "HgN/A
Weather by CustomWeather, © 2014

See weather overviewHow to use our weather pages